Change the Weather History Date:

Saturday, March 9, 2013

  Actual Average (KAIT) Record (KAIT)
Temperature  
Mean Temperature 30 °F -  
Max Temperature 33 °F 36 °F 57 °F (1977)
Min Temperature 26 °F 14 °F -12 °F (1970)
Degree Days  
Heating Degree Days 36    
Moisture  
Dew Point 31 °F    
Average Humidity 96    
Maximum Humidity 100    
Minimum Humidity 80    
Precipitation  
Precipitation 0.51 in - - ()
Sea Level Pressure  
Sea Level Pressure 29.84 in    
Wind  
Wind Speed 5 mph (ESE)    
Max Wind Speed 10 mph    
Max Gust Speed -    
Visibility 4 miles    
Events      
Averages and records for this station are not official NWS values.
T = Trace of Precipitation, MM = Missing Value Source: NWS Daily Summary

Daily Weather History Graph

Daily Weather History Graph

Search for Another Location

Airport or City:

Trip Planner

Search our weather history database for the weather conditions in past years. The results will help you decide how hot, cold, wet, or windy it might be!

Date:

Astronomy

Mar. 09, 2013 Rise Set
Actual Time 6:37 AM CST 6:10 PM CST
Civil Twilight 6:07 AM CST 6:41 PM CST
Nautical Twilight 5:32 AM CST 7:16 PM CST
Astronomical Twilight 4:56 AM CST 7:51 PM CST
Moon 5:07 AM CST (3/9) 4:08 PM CST (3/9)
Length of Visible Light 12h 34m
Length of Day
11h 33m
Waning Crescent, 5% of the Moon is Illuminated
Mar 9
Waning Crescent
Mar 11
New
Mar 19
First Quarter
Mar 27
Full
Apr 2
Last Quarter

Hourly Weather History & Observations

Time (CST) Temp. Windchill Dew Point Humidity Pressure Visibility Wind Dir Wind Speed Gust Speed Precip Events Conditions
12:12 AM 28.4 °F 24.6 °F 24.8 °F 86% 30.07 in 7.0 mi ESE 3.5 mph - N/A   Clear
12:32 AM 26.6 °F 22.6 °F 23.0 °F 86% 30.06 in 7.0 mi ESE 3.5 mph - N/A   Clear
12:53 AM 28.4 °F 23.3 °F 24.8 °F 86% 30.05 in 7.0 mi ESE 4.6 mph - N/A   Clear
1:13 AM 30.2 °F 26.7 °F 26.6 °F 86% 30.06 in 7.0 mi SE 3.5 mph - N/A   Clear
1:31 AM 30.2 °F 25.4 °F 26.6 °F 86% 30.05 in 7.0 mi SE 4.6 mph - N/A   Scattered Clouds
1:53 AM 30.2 °F 26.7 °F 26.6 °F 86% 30.04 in 7.0 mi SE 3.5 mph - N/A   Mostly Cloudy
2:11 AM 30.2 °F 25.4 °F 26.6 °F 86% 30.03 in 7.0 mi SE 4.6 mph - N/A   Mostly Cloudy
2:31 AM 32.0 °F 26.4 °F 26.6 °F 80% 30.02 in 7.0 mi SE 5.8 mph - N/A   Overcast
2:53 AM 32.0 °F 25.6 °F 28.4 °F 87% 30.00 in 10.0 mi SE 6.9 mph - N/A   Overcast
3:13 AM 32.0 °F 25.6 °F 28.4 °F 87% 29.99 in 10.0 mi SE 6.9 mph - N/A   Overcast
3:32 AM 32.0 °F 24.8 °F 28.4 °F 87% 29.98 in 10.0 mi SE 8.1 mph - N/A   Overcast
3:53 AM 32.0 °F 24.8 °F 28.4 °F 87% 29.97 in 10.0 mi SE 8.1 mph - N/A   Overcast
4:12 AM 32.0 °F 23.6 °F 28.4 °F 87% 29.96 in 10.0 mi SE 10.4 mph - N/A   Overcast
4:31 AM 32.0 °F 24.2 °F 28.4 °F 87% 29.95 in 10.0 mi SE 9.2 mph - N/A   Overcast
4:53 AM 32.0 °F 24.8 °F 28.4 °F 87% 29.95 in 7.0 mi SE 8.1 mph - N/A   Overcast
5:13 AM 32.0 °F 24.2 °F 30.2 °F 93% 29.94 in 5.0 mi SE 9.2 mph - N/A   Overcast
5:32 AM 32.0 °F 24.8 °F 30.2 °F 93% 29.93 in 4.0 mi SE 8.1 mph - 0.01 in   Overcast
5:53 AM 32.0 °F 24.8 °F 30.2 °F 93% 29.93 in 4.0 mi SE 8.1 mph - 0.02 in   Overcast
6:13 AM 32.0 °F 24.2 °F 30.2 °F 93% 29.92 in 4.0 mi SE 9.2 mph - N/A   Overcast
6:32 AM 32.0 °F 24.2 °F 32.0 °F 100% 29.91 in 4.0 mi ESE 9.2 mph - N/A   Overcast
6:52 AM 32.0 °F 23.6 °F 32.0 °F 100% 29.91 in 4.0 mi ESE 10.4 mph - 0.01 in   Overcast
7:13 AM 32.0 °F 24.8 °F 32.0 °F 100% 29.90 in 2.0 mi SE 8.1 mph - N/A   Overcast
7:32 AM 32.0 °F 25.6 °F 32.0 °F 100% 29.90 in 1.0 mi ESE 6.9 mph - N/A   Overcast
7:52 AM 32.0 °F 24.2 °F 32.0 °F 100% 29.89 in 1.0 mi ESE 9.2 mph - 0.01 in   Overcast
8:12 AM 32.0 °F 24.8 °F 32.0 °F 100% 29.88 in 1.5 mi ESE 8.1 mph - N/A   Overcast
8:32 AM 32.0 °F 24.2 °F 32.0 °F 100% 29.88 in 3.0 mi SE 9.2 mph - N/A   Overcast
8:53 AM 32.0 °F 24.2 °F 32.0 °F 100% 29.87 in 4.0 mi SE 9.2 mph - N/A   Overcast
9:13 AM 32.0 °F 24.8 °F 32.0 °F 100% 29.86 in 5.0 mi SE 8.1 mph - N/A   Overcast
9:32 AM 32.0 °F 25.6 °F 32.0 °F 100% 29.84 in 4.0 mi ESE 6.9 mph - N/A   Overcast
9:53 AM 32.0 °F 24.8 °F 32.0 °F 100% 29.84 in 2.0 mi ESE 8.1 mph - N/A   Overcast
10:13 AM 32.0 °F 24.8 °F 32.0 °F 100% 29.84 in 1.8 mi SE 8.1 mph - N/A   Overcast
10:32 AM 32.0 °F 24.2 °F 32.0 °F 100% 29.83 in 1.5 mi SE 9.2 mph - N/A   Overcast
10:53 AM 32.0 °F 24.8 °F 32.0 °F 100% 29.82 in 1.5 mi SE 8.1 mph - N/A   Overcast
11:12 AM 32.0 °F 26.4 °F 32.0 °F 100% 29.82 in 2.5 mi SE 5.8 mph - N/A   Overcast
11:33 AM 32.0 °F 24.8 °F 32.0 °F 100% 29.81 in 4.0 mi SE 8.1 mph - N/A   Overcast
11:52 AM 33.8 °F 28.6 °F 32.0 °F 93% 29.80 in 4.0 mi SE 5.8 mph - N/A   Overcast
12:13 PM 33.8 °F 28.6 °F 32.0 °F 93% 29.80 in 2.5 mi SE 5.8 mph - N/A   Overcast
12:33 PM 33.8 °F 28.6 °F 32.0 °F 93% 29.79 in 2.5 mi SE 5.8 mph - N/A   Overcast
12:51 PM 33.8 °F 29.6 °F 32.0 °F 93% 29.78 in 2.5 mi SE 4.6 mph - N/A   Overcast
1:13 PM 33.8 °F 29.6 °F 32.0 °F 93% 29.77 in 2.5 mi ESE 4.6 mph - N/A   Overcast
1:33 PM 33.8 °F 29.6 °F 32.0 °F 93% 29.77 in 3.0 mi SE 4.6 mph - N/A   Overcast
1:51 PM 33.8 °F 30.8 °F 32.0 °F 93% 29.76 in 1.5 mi East 3.5 mph - 0.01 in   Overcast
2:13 PM 33.8 °F 30.8 °F 32.0 °F 93% 29.77 in 1.0 mi SE 3.5 mph - 0.02 in   Overcast
2:33 PM 33.8 °F 30.8 °F 32.0 °F 93% 29.75 in 0.5 mi East 3.5 mph - 0.05 in   Overcast
2:53 PM 32.0 °F - 32.0 °F 100% 29.74 in 0.8 mi Calm Calm - 0.06 in   Overcast
3:13 PM 32.0 °F 28.7 °F 32.0 °F 100% 29.73 in 0.8 mi ENE 3.5 mph - 0.01 in   Overcast
3:33 PM 32.0 °F 28.7 °F 32.0 °F 100% 29.73 in 0.8 mi ENE 3.5 mph - 0.02 in   Overcast
3:53 PM 32.0 °F 28.7 °F 32.0 °F 100% 29.72 in 0.5 mi East 3.5 mph - 0.02 in   Overcast
4:13 PM 32.0 °F 28.7 °F 32.0 °F 100% 29.72 in 0.5 mi ENE 3.5 mph - N/A   Overcast
4:33 PM 32.0 °F - 32.0 °F 100% 29.72 in 0.8 mi Calm Calm - N/A   Overcast
4:53 PM 32.0 °F - 32.0 °F 100% 29.74 in 0.5 mi Calm Calm - 0.02 in   Overcast
5:13 PM 32.0 °F 28.7 °F 32.0 °F 100% 29.72 in 0.5 mi NNE 3.5 mph - 0.01 in   Overcast
5:32 PM 32.0 °F - 32.0 °F 100% 29.73 in 0.5 mi Calm Calm - 0.05 in   Overcast
5:52 PM 32.0 °F - 32.0 °F 100% 29.73 in 0.5 mi Calm Calm - 0.10 in   Overcast
6:12 PM 32.0 °F - 32.0 °F 100% 29.73 in 0.8 mi Calm Calm - 0.03 in   Overcast
6:32 PM 32.0 °F - 32.0 °F 100% 29.74 in 1.2 mi Calm Calm - 0.07 in   Overcast
6:52 PM 32.0 °F - 32.0 °F 100% 29.75 in 1.5 mi Calm Calm - 0.11 in   Overcast
7:13 PM 32.0 °F - 32.0 °F 100% 29.75 in 1.2 mi Calm Calm - 0.03 in   Overcast
7:32 PM 32.0 °F - 32.0 °F 100% 29.75 in 1.2 mi Calm Calm - 0.05 in   Overcast
7:51 PM 32.0 °F - 32.0 °F 100% 29.76 in 1.2 mi Calm Calm - 0.07 in   Overcast
8:13 PM 32.0 °F 28.7 °F 32.0 °F 100% 29.75 in 2.0 mi NNW 3.5 mph - 0.02 in   Overcast
8:33 PM 32.0 °F 28.7 °F 32.0 °F 100% 29.76 in 2.5 mi NNW 3.5 mph - 0.04 in   Overcast
8:53 PM 32.0 °F 28.7 °F 32.0 °F 100% 29.76 in 3.0 mi NNW 3.5 mph - 0.05 in   Overcast
9:13 PM 32.0 °F 27.5 °F 32.0 °F 100% 29.76 in 5.0 mi NNW 4.6 mph - 0.02 in   Overcast
9:33 PM 32.0 °F 28.7 °F 32.0 °F 100% 29.77 in 10.0 mi North 3.5 mph - 0.02 in   Overcast
9:52 PM 32.0 °F 27.5 °F 32.0 °F 100% 29.77 in 10.0 mi NNW 4.6 mph - 0.03 in   Overcast
10:13 PM 32.0 °F 28.7 °F 32.0 °F 100% 29.78 in 10.0 mi NNW 3.5 mph - N/A   Overcast
10:32 PM 32.0 °F 27.5 °F 32.0 °F 100% 29.78 in 10.0 mi NW 4.6 mph - N/A   Overcast
10:51 PM 32.0 °F 27.5 °F 32.0 °F 100% 29.78 in 10.0 mi NNW 4.6 mph - N/A   Overcast
11:13 PM 32.0 °F 26.4 °F 32.0 °F 100% 29.79 in 10.0 mi NNW 5.8 mph - N/A   Overcast
11:33 PM 32.0 °F 26.4 °F 32.0 °F 100% 29.80 in 10.0 mi NNW 5.8 mph - N/A   Overcast
11:51 PM 32.0 °F 25.6 °F 32.0 °F 100% 29.79 in 10.0 mi NW 6.9 mph - N/A   Overcast